[Date Prev][Date Next][Thread Prev][Thread Next] - [Date Index][Thread Index][Author Index]
2 Line ISS Keps 6-16
- Subject: [sarex] 2 Line ISS Keps 6-16
- From: "Dave Larsen PhD" <david@xxxxxxxxxxx>
- Date: Sat, 16 Jun 2001 16:51:56 -0700
ISS
1 25544U 98067A 01167.85722368 .00044069 00000-0 49301-3 0 978
2 25544 51.5710 90.3443 0017410 169.7839 313.6003 15.62088538147026
----
Via the sarex mailing list at AMSAT.ORG courtesy of AMSAT-NA.
To unsubscribe, send "unsubscribe sarex" to Majordomo@amsat.org
AMSAT Home